Year,Month,Day,Hour,Minute,Value (Times are PST for temperature in C)
2014,06,12,00,00,11.30
2014,06,12,00,01,11.30
2014,06,12,00,02,11.30
2014,06,12,00,03,11.30
2014,06,12,00,04,11.30
2014,06,12,00,05,11.30
2014,06,12,00,06,11.20
2014,06,12,00,07,11.20
2014,06,12,00,08,11.20
2014,06,12,00,09,11.20
2014,06,12,00,10,11.20
2014,06,12,00,11,11.20
2014,06,12,00,12,11.20
2014,06,12,00,13,11.20
2014,06,12,00,14,11.20
2014,06,12,00,15,11.20
2014,06,12,00,16,11.20
2014,06,12,00,17,11.20
2014,06,12,00,18,11.10
2014,06,12,00,19,11.10
2014,06,12,00,20,11.10
2014,06,12,00,21,11.10
2014,06,12,00,22,11.10
2014,06,12,00,23,11.10
2014,06,12,00,24,11.10
2014,06,12,00,25,11.10
2014,06,12,00,26,11.10
2014,06,12,00,27,11.10
2014,06,12,00,28,11.10
2014,06,12,00,29,11.10
2014,06,12,00,30,11.10
2014,06,12,00,31,11.10
2014,06,12,00,32,11.10
2014,06,12,00,33,11.00
2014,06,12,00,34,11.10
2014,06,12,00,35,11.00
2014,06,12,00,36,11.00
2014,06,12,00,37,11.00
2014,06,12,00,38,11.00
2014,06,12,00,39,11.00
2014,06,12,00,40,11.00
2014,06,12,00,41,11.00
2014,06,12,00,42,11.00
2014,06,12,00,43,11.00
2014,06,12,00,44,11.00
2014,06,12,00,45,11.00
2014,06,12,00,46,11.00
2014,06,12,00,47,11.00
2014,06,12,00,48,11.00
2014,06,12,00,49,11.00
2014,06,12,00,50,11.00
2014,06,12,00,51,11.00
2014,06,12,00,52,11.00
2014,06,12,00,53,11.00
2014,06,12,00,54,11.00
2014,06,12,00,55,11.00
2014,06,12,00,56,11.00
2014,06,12,00,57,10.90
2014,06,12,00,58,10.90
2014,06,12,00,59,11.00
2014,06,12,01,00,11.00
2014,06,12,01,01,11.00
2014,06,12,01,02,11.00
2014,06,12,01,03,11.00
2014,06,12,01,04,10.90
2014,06,12,01,05,10.90
2014,06,12,01,06,10.90
2014,06,12,01,07,10.90
2014,06,12,01,08,10.90
2014,06,12,01,09,10.90
2014,06,12,01,10,10.90
2014,06,12,01,11,10.90
2014,06,12,01,12,11.00
2014,06,12,01,13,11.00
2014,06,12,01,14,11.00
2014,06,12,01,15,11.00
2014,06,12,01,16,11.00
2014,06,12,01,17,10.90
2014,06,12,01,18,10.90
2014,06,12,01,19,10.90
2014,06,12,01,20,10.90
2014,06,12,01,21,10.90
2014,06,12,01,22,10.90
2014,06,12,01,23,10.90
2014,06,12,01,24,10.90
2014,06,12,01,25,10.90
2014,06,12,01,26,10.90
2014,06,12,01,27,10.90
2014,06,12,01,28,10.90
2014,06,12,01,29,10.90
2014,06,12,01,30,10.90
2014,06,12,01,31,10.90
2014,06,12,01,32,10.90
2014,06,12,01,33,10.90
2014,06,12,01,34,10.90
2014,06,12,01,35,10.90
2014,06,12,01,36,10.90
2014,06,12,01,37,10.90
2014,06,12,01,38,10.90
2014,06,12,01,39,10.90
2014,06,12,01,40,10.90
2014,06,12,01,41,10.90
2014,06,12,01,42,10.90
2014,06,12,01,43,10.90
2014,06,12,01,44,10.90
2014,06,12,01,45,10.90
2014,06,12,01,46,10.90
2014,06,12,01,47,10.90
2014,06,12,01,48,10.90
2014,06,12,01,49,10.90
2014,06,12,01,50,10.90
2014,06,12,01,51,10.90
2014,06,12,01,52,10.90
2014,06,12,01,53,10.90
2014,06,12,01,54,10.90
2014,06,12,01,55,10.90
2014,06,12,01,56,10.90
2014,06,12,01,57,10.90
2014,06,12,01,58,10.90
2014,06,12,01,59,10.90
2014,06,12,02,00,10.90
2014,06,12,02,01,10.90
2014,06,12,02,02,10.90
2014,06,12,02,03,10.90
2014,06,12,02,04,10.90
2014,06,12,02,05,10.90
2014,06,12,02,06,10.90
2014,06,12,02,07,10.90
2014,06,12,02,08,10.90
2014,06,12,02,09,10.90
2014,06,12,02,10,11.00
2014,06,12,02,11,11.00
2014,06,12,02,12,11.00
2014,06,12,02,13,11.00
2014,06,12,02,14,11.00
2014,06,12,02,15,11.00
2014,06,12,02,16,11.00
2014,06,12,02,17,11.00
2014,06,12,02,18,11.00
2014,06,12,02,19,11.00
2014,06,12,02,20,11.00
2014,06,12,02,21,11.00
2014,06,12,02,22,11.00
2014,06,12,02,23,11.00
2014,06,12,02,24,11.00
2014,06,12,02,25,11.00
2014,06,12,02,26,11.00
2014,06,12,02,27,11.00
2014,06,12,02,28,11.00
2014,06,12,02,29,11.00
2014,06,12,02,30,11.00
2014,06,12,02,31,11.00
2014,06,12,02,32,11.00
2014,06,12,02,33,11.00
2014,06,12,02,34,11.00
2014,06,12,02,35,11.00
2014,06,12,02,36,11.00
2014,06,12,02,37,11.00
2014,06,12,02,38,11.00
2014,06,12,02,39,11.00
2014,06,12,02,40,11.00
2014,06,12,02,41,11.00
2014,06,12,02,42,11.00
2014,06,12,02,43,11.00
2014,06,12,02,44,11.00
2014,06,12,02,45,11.00
2014,06,12,02,46,11.00
2014,06,12,02,47,11.00
2014,06,12,02,48,11.00
2014,06,12,02,49,11.00
2014,06,12,02,50,11.00
2014,06,12,02,51,11.00
2014,06,12,02,52,11.00
2014,06,12,02,53,11.00
2014,06,12,02,54,11.00
2014,06,12,02,55,11.00
2014,06,12,02,56,11.00
2014,06,12,02,57,11.00
2014,06,12,02,58,11.00
2014,06,12,02,59,11.00
2014,06,12,03,00,11.00
2014,06,12,03,01,11.00
2014,06,12,03,02,11.00
2014,06,12,03,03,11.00
2014,06,12,03,04,11.00
2014,06,12,03,05,11.10
2014,06,12,03,06,11.10
2014,06,12,03,07,11.10
2014,06,12,03,08,11.00
2014,06,12,03,09,11.00
2014,06,12,03,10,11.00
2014,06,12,03,11,11.00
2014,06,12,03,12,11.00
2014,06,12,03,13,11.00
2014,06,12,03,14,11.00
2014,06,12,03,15,11.00
2014,06,12,03,16,11.00
2014,06,12,03,17,11.00
2014,06,12,03,18,11.00
2014,06,12,03,19,11.00
2014,06,12,03,20,11.00
2014,06,12,03,21,11.00
2014,06,12,03,22,11.00
2014,06,12,03,23,11.00
2014,06,12,03,24,11.00
2014,06,12,03,25,11.00
2014,06,12,03,26,11.00
2014,06,12,03,27,11.00
2014,06,12,03,28,11.00
2014,06,12,03,29,11.00
2014,06,12,03,30,11.00
2014,06,12,03,31,11.00
2014,06,12,03,32,11.00
2014,06,12,03,33,11.00
2014,06,12,03,34,11.00
2014,06,12,03,35,11.00
2014,06,12,03,36,11.00
2014,06,12,03,37,11.00
2014,06,12,03,38,11.00
2014,06,12,03,39,11.00
2014,06,12,03,40,11.00
2014,06,12,03,41,10.90
2014,06,12,03,42,10.90
2014,06,12,03,43,10.90
2014,06,12,03,44,10.90
2014,06,12,03,45,10.90
2014,06,12,03,46,10.90
2014,06,12,03,47,10.90
2014,06,12,03,48,10.90
2014,06,12,03,49,10.90
2014,06,12,03,50,10.80
2014,06,12,03,51,10.80
2014,06,12,03,52,10.80
2014,06,12,03,53,10.80
2014,06,12,03,54,10.80
2014,06,12,03,55,10.80
2014,06,12,03,56,10.80
2014,06,12,03,57,10.80
2014,06,12,03,58,10.80
2014,06,12,03,59,10.80
2014,06,12,04,00,10.80
2014,06,12,04,01,10.80
2014,06,12,04,02,10.80
2014,06,12,04,03,10.70
2014,06,12,04,04,10.70
2014,06,12,04,05,10.70
2014,06,12,04,06,10.70
2014,06,12,04,07,10.60
2014,06,12,04,08,10.60
2014,06,12,04,09,10.60
2014,06,12,04,10,10.60
2014,06,12,04,11,10.60
2014,06,12,04,12,10.50
2014,06,12,04,13,10.50
2014,06,12,04,14,10.50
2014,06,12,04,15,10.50
2014,06,12,04,16,10.50
2014,06,12,04,17,10.50
2014,06,12,04,18,10.50
2014,06,12,04,19,10.50
2014,06,12,04,20,10.50
2014,06,12,04,21,10.50
2014,06,12,04,22,10.50
2014,06,12,04,23,10.50
2014,06,12,04,24,10.50
2014,06,12,04,25,10.50
2014,06,12,04,26,10.50
2014,06,12,04,27,10.50
2014,06,12,04,28,10.50
2014,06,12,04,29,10.50
2014,06,12,04,30,10.40
2014,06,12,04,31,10.40
2014,06,12,04,32,10.40
2014,06,12,04,33,10.40
2014,06,12,04,34,10.40
2014,06,12,04,35,10.40
2014,06,12,04,36,10.40
2014,06,12,04,37,10.40
2014,06,12,04,38,10.50
2014,06,12,04,39,10.50
2014,06,12,04,40,10.50
2014,06,12,04,41,10.50
2014,06,12,04,42,10.50
2014,06,12,04,43,10.50
2014,06,12,04,44,10.50
2014,06,12,04,45,10.60
2014,06,12,04,46,10.60
2014,06,12,04,47,10.60
2014,06,12,04,48,10.60
2014,06,12,04,49,10.60
2014,06,12,04,50,10.60
2014,06,12,04,51,10.60
2014,06,12,04,52,10.60
2014,06,12,04,53,10.60
2014,06,12,04,54,10.60
2014,06,12,04,55,10.60
2014,06,12,04,56,10.60
2014,06,12,04,57,10.60
2014,06,12,04,58,10.60
2014,06,12,04,59,10.60
2014,06,12,05,00,10.60
2014,06,12,05,01,10.60
2014,06,12,05,02,10.60
2014,06,12,05,03,10.60
2014,06,12,05,04,10.60
2014,06,12,05,05,10.60
2014,06,12,05,06,10.60
2014,06,12,05,07,10.60
2014,06,12,05,08,10.60
2014,06,12,05,09,10.60
2014,06,12,05,10,10.60
2014,06,12,05,11,10.60
2014,06,12,05,12,10.60
2014,06,12,05,13,10.60
2014,06,12,05,14,10.60
2014,06,12,05,15,10.60
2014,06,12,05,16,10.60
2014,06,12,05,17,10.60
2014,06,12,05,18,10.60
2014,06,12,05,19,10.60
2014,06,12,05,20,10.60
2014,06,12,05,21,10.60
2014,06,12,05,22,10.60
2014,06,12,05,23,10.60
2014,06,12,05,24,10.60
2014,06,12,05,25,10.60
2014,06,12,05,26,10.60
2014,06,12,05,27,10.60
2014,06,12,05,28,10.60
2014,06,12,05,29,10.60
2014,06,12,05,30,10.60
2014,06,12,05,31,10.60
2014,06,12,05,32,10.60
2014,06,12,05,33,10.60
2014,06,12,05,34,10.60
2014,06,12,05,35,10.60
2014,06,12,05,36,10.60
2014,06,12,05,37,10.60
2014,06,12,05,38,10.60
2014,06,12,05,39,10.60
2014,06,12,05,40,10.60
2014,06,12,05,41,10.60
2014,06,12,05,42,10.60
2014,06,12,05,43,10.60
2014,06,12,05,44,10.60
2014,06,12,05,45,10.60
2014,06,12,05,46,10.60
2014,06,12,05,47,10.60
2014,06,12,05,48,10.60
2014,06,12,05,49,10.50
2014,06,12,05,50,10.50
2014,06,12,05,51,10.50
2014,06,12,05,52,10.50
2014,06,12,05,53,10.50
2014,06,12,05,54,10.50
2014,06,12,05,55,10.60
2014,06,12,05,56,10.60
2014,06,12,05,57,10.60
2014,06,12,05,58,10.60
2014,06,12,05,59,10.60
2014,06,12,06,00,10.60
2014,06,12,06,01,10.60
2014,06,12,06,02,10.60
2014,06,12,06,03,10.60
2014,06,12,06,04,10.60
2014,06,12,06,05,10.60
2014,06,12,06,06,10.70
2014,06,12,06,07,10.70
2014,06,12,06,08,10.70
2014,06,12,06,09,10.70
2014,06,12,06,10,10.70
2014,06,12,06,11,10.70
2014,06,12,06,12,10.70
2014,06,12,06,13,10.70
2014,06,12,06,14,10.70
2014,06,12,06,15,10.70
2014,06,12,06,16,10.70
2014,06,12,06,17,10.70
2014,06,12,06,18,10.70
2014,06,12,06,19,10.70
2014,06,12,06,20,10.70
2014,06,12,06,21,10.70
2014,06,12,06,22,10.60
2014,06,12,06,23,10.60
2014,06,12,06,24,10.60
2014,06,12,06,25,10.70
2014,06,12,06,26,10.70
2014,06,12,06,27,10.70
2014,06,12,06,28,10.80
2014,06,12,06,29,10.90
2014,06,12,06,30,10.90
2014,06,12,06,31,11.00
2014,06,12,06,32,11.00
2014,06,12,06,33,11.10
2014,06,12,06,34,11.10
2014,06,12,06,35,11.20
2014,06,12,06,36,11.20
2014,06,12,06,37,11.20
2014,06,12,06,38,11.20
2014,06,12,06,39,11.20
2014,06,12,06,40,11.30
2014,06,12,06,41,11.30
2014,06,12,06,42,11.30
2014,06,12,06,43,11.30
2014,06,12,06,44,11.30
2014,06,12,06,45,11.30
2014,06,12,06,46,11.40
2014,06,12,06,47,11.40
2014,06,12,06,48,11.40
2014,06,12,06,49,11.40
2014,06,12,06,50,11.50
2014,06,12,06,51,11.50
2014,06,12,06,52,11.50
2014,06,12,06,53,11.50
2014,06,12,06,54,11.60
2014,06,12,06,55,11.60
2014,06,12,06,56,11.60
2014,06,12,06,57,11.60
2014,06,12,06,58,11.60
2014,06,12,06,59,11.60
2014,06,12,07,00,11.70
2014,06,12,07,01,11.70
2014,06,12,07,02,11.70
2014,06,12,07,03,11.70
2014,06,12,07,04,11.70
2014,06,12,07,05,11.70
2014,06,12,07,06,11.70
2014,06,12,07,07,11.70
2014,06,12,07,08,11.80
2014,06,12,07,09,11.80
2014,06,12,07,10,11.80
2014,06,12,07,11,11.80
2014,06,12,07,12,11.80
2014,06,12,07,13,11.80
2014,06,12,07,14,11.80
2014,06,12,07,15,11.80
2014,06,12,07,16,11.80
2014,06,12,07,17,11.80
2014,06,12,07,18,11.80
2014,06,12,07,19,11.80
2014,06,12,07,20,11.80
2014,06,12,07,21,11.80
2014,06,12,07,22,11.80
2014,06,12,07,23,11.70
2014,06,12,07,24,11.70
2014,06,12,07,25,11.70
2014,06,12,07,26,11.70
2014,06,12,07,27,11.80
2014,06,12,07,28,11.80
2014,06,12,07,29,11.80
2014,06,12,07,30,11.80
2014,06,12,07,31,11.80
2014,06,12,07,32,11.80
2014,06,12,07,33,11.80
2014,06,12,07,34,11.80
2014,06,12,07,35,11.80
2014,06,12,07,36,11.80
2014,06,12,07,37,11.90
2014,06,12,07,38,11.90
2014,06,12,07,39,11.90
2014,06,12,07,40,12.00
2014,06,12,07,41,12.00
2014,06,12,07,42,12.00
2014,06,12,07,43,12.10
2014,06,12,07,44,12.10
2014,06,12,07,45,12.10
2014,06,12,07,46,12.10
2014,06,12,07,47,12.20
2014,06,12,07,48,12.20
2014,06,12,07,49,12.20
2014,06,12,07,50,12.20
2014,06,12,07,51,12.30
2014,06,12,07,52,12.30
2014,06,12,07,53,12.30
2014,06,12,07,54,12.40
2014,06,12,07,55,12.50
2014,06,12,07,56,12.60
2014,06,12,07,57,12.60
2014,06,12,07,58,12.70
2014,06,12,07,59,12.80
2014,06,12,08,00,12.80
2014,06,12,08,01,12.90
2014,06,12,08,02,13.00
2014,06,12,08,03,13.00
2014,06,12,08,04,13.10
2014,06,12,08,05,13.20
2014,06,12,08,06,13.20
2014,06,12,08,07,13.20
2014,06,12,08,08,13.30
2014,06,12,08,09,13.30
2014,06,12,08,10,13.30
2014,06,12,08,11,13.40
2014,06,12,08,12,13.40
2014,06,12,08,13,13.40
2014,06,12,08,14,13.40
2014,06,12,08,15,13.40
2014,06,12,08,16,13.40
2014,06,12,08,17,13.50
2014,06,12,08,18,13.50
2014,06,12,08,19,13.50
2014,06,12,08,20,13.60
2014,06,12,08,21,13.60
2014,06,12,08,22,13.60
2014,06,12,08,23,13.70
2014,06,12,08,24,13.70
2014,06,12,08,25,13.70
2014,06,12,08,26,13.80
2014,06,12,08,27,13.80
2014,06,12,08,28,13.80
2014,06,12,08,29,13.80
2014,06,12,08,30,13.80
2014,06,12,08,31,13.90
2014,06,12,08,32,13.90
2014,06,12,08,33,13.90
2014,06,12,08,34,13.90
2014,06,12,08,35,13.90
2014,06,12,08,36,13.90
2014,06,12,08,37,13.90
2014,06,12,08,38,13.80
2014,06,12,08,39,13.80
2014,06,12,08,40,13.80
2014,06,12,08,41,13.80
2014,06,12,08,42,13.80
2014,06,12,08,43,13.80
2014,06,12,08,44,13.80
2014,06,12,08,45,13.90
2014,06,12,08,46,13.90
2014,06,12,08,47,13.90
2014,06,12,08,48,13.80
2014,06,12,08,49,13.80
2014,06,12,08,50,13.80
2014,06,12,08,51,13.80
2014,06,12,08,52,13.70
2014,06,12,08,53,13.70
2014,06,12,08,54,13.70
2014,06,12,08,55,13.60
2014,06,12,08,56,13.60
2014,06,12,08,57,13.50
2014,06,12,08,58,13.40
2014,06,12,08,59,13.40
2014,06,12,09,00,13.40
2014,06,12,09,01,13.30
2014,06,12,09,02,13.30
2014,06,12,09,03,13.30
2014,06,12,09,04,13.30
2014,06,12,09,05,13.30
2014,06,12,09,06,13.40
2014,06,12,09,07,13.40
2014,06,12,09,08,13.40
2014,06,12,09,09,13.50
2014,06,12,09,10,13.60
2014,06,12,09,11,13.60
2014,06,12,09,12,13.70
2014,06,12,09,13,13.80
2014,06,12,09,14,13.80
2014,06,12,09,15,13.80
2014,06,12,09,16,13.90
2014,06,12,09,17,13.90
2014,06,12,09,18,13.90
2014,06,12,09,19,13.90
2014,06,12,09,20,13.90
2014,06,12,09,21,13.90
2014,06,12,09,22,13.90
2014,06,12,09,23,13.90
2014,06,12,09,24,13.80
2014,06,12,09,25,13.80
2014,06,12,09,26,13.70
2014,06,12,09,27,13.70
2014,06,12,09,28,13.70
2014,06,12,09,29,13.60
2014,06,12,09,30,13.60
2014,06,12,09,31,13.60
2014,06,12,09,32,13.50
2014,06,12,09,33,13.40
2014,06,12,09,34,13.40
2014,06,12,09,35,13.40
2014,06,12,09,36,13.30
2014,06,12,09,37,13.30
2014,06,12,09,38,13.30
2014,06,12,09,39,13.30
2014,06,12,09,40,13.30
2014,06,12,09,41,13.30
2014,06,12,09,42,13.30
2014,06,12,09,43,13.30
2014,06,12,09,44,13.20
2014,06,12,09,45,13.20
2014,06,12,09,46,13.20
2014,06,12,09,47,13.20
2014,06,12,09,48,13.20
2014,06,12,09,49,13.20
2014,06,12,09,50,13.20
2014,06,12,09,51,13.20
2014,06,12,09,52,13.20
2014,06,12,09,53,13.20
2014,06,12,09,54,13.20
2014,06,12,09,55,13.20
2014,06,12,09,56,13.20
2014,06,12,09,57,13.20
2014,06,12,09,58,13.20
2014,06,12,09,59,13.30
2014,06,12,10,00,13.30
2014,06,12,10,01,13.30
2014,06,12,10,02,13.30
2014,06,12,10,03,13.30
2014,06,12,10,04,13.30
2014,06,12,10,05,13.40
2014,06,12,10,06,13.40
2014,06,12,10,07,13.40
2014,06,12,10,08,13.40
2014,06,12,10,09,13.40
2014,06,12,10,10,13.50
2014,06,12,10,11,13.50
2014,06,12,10,12,13.60
2014,06,12,10,13,13.60
2014,06,12,10,14,13.60
2014,06,12,10,15,13.70
2014,06,12,10,16,13.70
2014,06,12,10,17,13.80
2014,06,12,10,18,13.80
2014,06,12,10,19,13.90
2014,06,12,10,20,14.00
2014,06,12,10,21,14.10
2014,06,12,10,22,14.10
2014,06,12,10,23,14.20
2014,06,12,10,24,14.30
2014,06,12,10,25,14.30
2014,06,12,10,26,14.40
2014,06,12,10,27,14.40
2014,06,12,10,28,14.50
2014,06,12,10,29,14.50
2014,06,12,10,30,14.60
2014,06,12,10,31,14.60
2014,06,12,10,32,14.70
2014,06,12,10,33,14.70
2014,06,12,10,34,14.70
2014,06,12,10,35,14.80
2014,06,12,10,36,14.80
2014,06,12,10,37,14.90
2014,06,12,10,38,14.90
2014,06,12,10,39,15.00
2014,06,12,10,40,15.00
2014,06,12,10,41,15.00
2014,06,12,10,42,15.10
2014,06,12,10,43,15.00
2014,06,12,10,44,15.00
2014,06,12,10,45,15.00
2014,06,12,10,46,14.90
2014,06,12,10,47,14.90
2014,06,12,10,48,14.90
2014,06,12,10,49,14.90
2014,06,12,10,50,14.80
2014,06,12,10,51,14.80
2014,06,12,10,52,14.80
2014,06,12,10,53,14.80
2014,06,12,10,54,14.80
2014,06,12,10,55,14.80
2014,06,12,10,56,14.80
2014,06,12,10,57,14.80
2014,06,12,10,58,14.70
2014,06,12,10,59,14.70
2014,06,12,11,00,14.70
2014,06,12,11,01,14.70
2014,06,12,11,02,14.70
2014,06,12,11,03,14.80
2014,06,12,11,04,14.80
2014,06,12,11,05,14.80
2014,06,12,11,06,14.80
2014,06,12,11,07,14.80
2014,06,12,11,08,14.80
2014,06,12,11,09,14.80
2014,06,12,11,10,14.80
2014,06,12,11,11,14.80
2014,06,12,11,12,14.80
2014,06,12,11,13,14.80
2014,06,12,11,14,14.80
2014,06,12,11,15,14.80
2014,06,12,11,16,14.80
2014,06,12,11,17,14.70
2014,06,12,11,18,14.70
2014,06,12,11,19,14.70
2014,06,12,11,20,14.70
2014,06,12,11,21,14.70
2014,06,12,11,22,14.70
2014,06,12,11,23,14.80
2014,06,12,11,24,14.80
2014,06,12,11,25,14.90
2014,06,12,11,26,14.90
2014,06,12,11,27,15.00
2014,06,12,11,28,15.00
2014,06,12,11,29,15.10
2014,06,12,11,30,15.20
2014,06,12,11,31,15.20
2014,06,12,11,32,15.30
2014,06,12,11,33,15.40
2014,06,12,11,34,15.50
2014,06,12,11,35,15.50
2014,06,12,11,36,15.60
2014,06,12,11,37,15.60
2014,06,12,11,38,15.60
2014,06,12,11,39,15.70
2014,06,12,11,40,15.70
2014,06,12,11,41,15.80
2014,06,12,11,42,15.80
2014,06,12,11,43,15.90
2014,06,12,11,44,15.90
2014,06,12,11,45,15.90
2014,06,12,11,46,16.00
2014,06,12,11,47,16.00
2014,06,12,11,48,16.10
2014,06,12,11,49,16.20
2014,06,12,11,50,16.20
2014,06,12,11,51,16.20
2014,06,12,11,52,16.20
2014,06,12,11,53,16.20
2014,06,12,11,54,16.20
2014,06,12,11,55,16.20
2014,06,12,11,56,16.30
2014,06,12,11,57,16.30
2014,06,12,11,58,16.30
2014,06,12,11,59,16.30
2014,06,12,12,00,16.30
2014,06,12,12,01,16.30
2014,06,12,12,02,16.30
2014,06,12,12,03,16.30
2014,06,12,12,04,16.20
2014,06,12,12,05,16.20
2014,06,12,12,06,16.30
2014,06,12,12,07,16.40
2014,06,12,12,08,16.40
2014,06,12,12,09,16.50
2014,06,12,12,10,16.50
2014,06,12,12,11,16.50
2014,06,12,12,12,16.40
2014,06,12,12,13,16.50
2014,06,12,12,14,16.50
2014,06,12,12,15,16.40
2014,06,12,12,16,16.50
2014,06,12,12,17,16.50
2014,06,12,12,18,16.50
2014,06,12,12,19,16.50
2014,06,12,12,20,16.60
2014,06,12,12,21,16.50
2014,06,12,12,22,16.50
2014,06,12,12,23,16.50
2014,06,12,12,24,16.40
2014,06,12,12,25,16.30
2014,06,12,12,26,16.20
2014,06,12,12,27,16.20
2014,06,12,12,28,16.10
2014,06,12,12,29,16.10
2014,06,12,12,30,16.10
2014,06,12,12,31,16.00
2014,06,12,12,32,16.00
2014,06,12,12,33,16.00
2014,06,12,12,34,16.00
2014,06,12,12,35,16.00
2014,06,12,12,36,16.20
2014,06,12,12,37,16.30
2014,06,12,12,38,16.30
2014,06,12,12,39,16.30
2014,06,12,12,40,16.30
2014,06,12,12,41,16.30
2014,06,12,12,42,16.30
2014,06,12,12,43,16.40
2014,06,12,12,44,16.40
2014,06,12,12,45,16.40
2014,06,12,12,46,16.40
2014,06,12,12,47,16.50
2014,06,12,12,48,16.50
2014,06,12,12,49,16.50
2014,06,12,12,50,16.50
2014,06,12,12,51,16.60
2014,06,12,12,52,16.60
2014,06,12,12,53,16.60
2014,06,12,12,54,16.60
2014,06,12,12,55,16.60
2014,06,12,12,56,16.70
2014,06,12,12,57,16.80
2014,06,12,12,58,16.80
2014,06,12,12,59,16.80
2014,06,12,13,00,16.80
2014,06,12,13,01,16.80
2014,06,12,13,02,16.80
2014,06,12,13,03,16.80
2014,06,12,13,04,16.80
2014,06,12,13,05,16.80
2014,06,12,13,06,16.80
2014,06,12,13,07,16.80
2014,06,12,13,08,16.80
2014,06,12,13,09,16.80
2014,06,12,13,10,16.70
2014,06,12,13,11,16.80
2014,06,12,13,12,16.80
2014,06,12,13,13,16.80
2014,06,12,13,14,16.80
2014,06,12,13,15,16.80
2014,06,12,13,16,16.90
2014,06,12,13,17,16.90
2014,06,12,13,18,16.90
2014,06,12,13,19,16.90
2014,06,12,13,20,16.90
2014,06,12,13,21,16.80
2014,06,12,13,22,16.80
2014,06,12,13,23,16.80
2014,06,12,13,24,16.60
2014,06,12,13,25,16.50
2014,06,12,13,26,16.40
2014,06,12,13,27,16.30
2014,06,12,13,28,16.40
2014,06,12,13,29,16.40
2014,06,12,13,30,16.40
2014,06,12,13,31,16.30
2014,06,12,13,32,16.30
2014,06,12,13,33,16.30
2014,06,12,13,34,16.30
2014,06,12,13,35,16.40
2014,06,12,13,36,16.40
2014,06,12,13,37,16.30
2014,06,12,13,38,16.20
2014,06,12,13,39,16.20
2014,06,12,13,40,16.20
2014,06,12,13,41,16.30
2014,06,12,13,42,16.30
2014,06,12,13,43,16.30
2014,06,12,13,44,16.30
2014,06,12,13,45,16.30
2014,06,12,13,46,16.30
2014,06,12,13,47,16.20
2014,06,12,13,48,16.10
2014,06,12,13,49,16.10
2014,06,12,13,50,16.10
2014,06,12,13,51,16.00
2014,06,12,13,52,16.00
2014,06,12,13,53,16.10
2014,06,12,13,54,16.10
2014,06,12,13,55,16.10
2014,06,12,13,56,16.10
2014,06,12,13,57,16.10
2014,06,12,13,58,16.10
2014,06,12,13,59,16.10
2014,06,12,14,00,16.10
2014,06,12,14,01,16.10
2014,06,12,14,02,16.10
2014,06,12,14,03,16.10
2014,06,12,14,04,16.10
2014,06,12,14,05,16.10
2014,06,12,14,06,16.10
2014,06,12,14,07,16.20
2014,06,12,14,08,16.20
2014,06,12,14,09,16.30
2014,06,12,14,10,16.40
2014,06,12,14,11,16.40
2014,06,12,14,12,16.50
2014,06,12,14,13,16.60
2014,06,12,14,14,16.70
2014,06,12,14,15,16.80
2014,06,12,14,16,16.80
2014,06,12,14,17,16.90
2014,06,12,14,18,16.90
2014,06,12,14,19,16.80
2014,06,12,14,20,16.80
2014,06,12,14,21,16.70
2014,06,12,14,22,16.60
2014,06,12,14,23,16.60
2014,06,12,14,24,16.60
2014,06,12,14,25,16.50
2014,06,12,14,26,16.40
2014,06,12,14,27,16.40
2014,06,12,14,28,16.40
2014,06,12,14,29,16.30
2014,06,12,14,30,16.30
2014,06,12,14,31,16.20
2014,06,12,14,32,16.20
2014,06,12,14,33,16.20
2014,06,12,14,34,16.20
2014,06,12,14,35,16.10
2014,06,12,14,36,16.10
2014,06,12,14,37,16.10
2014,06,12,14,38,16.10
2014,06,12,14,39,16.10
2014,06,12,14,40,16.20
2014,06,12,14,41,16.20
2014,06,12,14,42,16.20
2014,06,12,14,43,16.20
2014,06,12,14,44,16.10
2014,06,12,14,45,16.10
2014,06,12,14,46,16.10
2014,06,12,14,47,16.00
2014,06,12,14,48,16.00
2014,06,12,14,49,16.00
2014,06,12,14,50,16.00
2014,06,12,14,51,16.00
2014,06,12,14,52,16.00
2014,06,12,14,53,16.10
2014,06,12,14,54,16.10
2014,06,12,14,55,16.10
2014,06,12,14,56,16.10
2014,06,12,14,57,16.20
2014,06,12,14,58,16.20
2014,06,12,14,59,16.30
2014,06,12,15,00,16.30
2014,06,12,15,01,16.30
2014,06,12,15,02,16.30
2014,06,12,15,03,16.20
2014,06,12,15,04,16.10
2014,06,12,15,05,16.00
2014,06,12,15,06,15.90
2014,06,12,15,07,15.80
2014,06,12,15,08,15.80
2014,06,12,15,09,15.80
2014,06,12,15,10,15.80
2014,06,12,15,11,15.80
2014,06,12,15,12,15.80
2014,06,12,15,13,15.70
2014,06,12,15,14,15.60
2014,06,12,15,15,15.60
2014,06,12,15,16,15.50
2014,06,12,15,17,15.50
2014,06,12,15,18,15.50
2014,06,12,15,19,15.50
2014,06,12,15,20,15.50
2014,06,12,15,21,15.50
2014,06,12,15,22,15.50
2014,06,12,15,23,15.50
2014,06,12,15,24,15.60
2014,06,12,15,25,15.60
2014,06,12,15,26,15.60
2014,06,12,15,27,15.60
2014,06,12,15,28,15.60
2014,06,12,15,29,15.70
2014,06,12,15,30,15.70
2014,06,12,15,31,15.70
2014,06,12,15,32,15.80
2014,06,12,15,33,15.80
2014,06,12,15,34,15.80
2014,06,12,15,35,15.80
2014,06,12,15,36,15.80
2014,06,12,15,37,15.80
2014,06,12,15,38,15.80
2014,06,12,15,39,15.80
2014,06,12,15,40,15.70
2014,06,12,15,41,15.70
2014,06,12,15,42,15.70
2014,06,12,15,43,15.60
2014,06,12,15,44,15.60
2014,06,12,15,45,15.60
2014,06,12,15,46,15.50
2014,06,12,15,47,15.50
2014,06,12,15,48,15.50
2014,06,12,15,49,15.50
2014,06,12,15,50,15.50
2014,06,12,15,51,15.50
2014,06,12,15,52,15.50
2014,06,12,15,53,15.50
2014,06,12,15,54,15.50
2014,06,12,15,55,15.40
2014,06,12,15,56,15.40
2014,06,12,15,57,15.40
2014,06,12,15,58,15.40
2014,06,12,15,59,15.40
2014,06,12,16,00,15.40
2014,06,12,16,01,15.30
2014,06,12,16,02,15.30
2014,06,12,16,03,15.30
2014,06,12,16,04,15.30
2014,06,12,16,05,15.30
2014,06,12,16,06,15.30
2014,06,12,16,07,15.30
2014,06,12,16,08,15.30
2014,06,12,16,09,15.30
2014,06,12,16,10,15.30
2014,06,12,16,11,15.30
2014,06,12,16,12,15.30
2014,06,12,16,13,15.30
2014,06,12,16,14,15.30
2014,06,12,16,15,15.30
2014,06,12,16,16,15.30
2014,06,12,16,17,15.30
2014,06,12,16,18,15.20
2014,06,12,16,19,15.20
2014,06,12,16,20,15.20
2014,06,12,16,21,15.30
2014,06,12,16,22,15.30
2014,06,12,16,23,15.30
2014,06,12,16,24,15.30
2014,06,12,16,25,15.30
2014,06,12,16,26,15.30
2014,06,12,16,27,15.30
2014,06,12,16,28,15.30
2014,06,12,16,29,15.30
2014,06,12,16,30,15.30
2014,06,12,16,31,15.30
2014,06,12,16,32,15.30
2014,06,12,16,33,15.30
2014,06,12,16,34,15.30
2014,06,12,16,35,15.30
2014,06,12,16,36,15.30
2014,06,12,16,37,15.30
2014,06,12,16,38,15.30
2014,06,12,16,39,15.30
2014,06,12,16,40,15.30
2014,06,12,16,41,15.30
2014,06,12,16,42,15.30
2014,06,12,16,43,15.30
2014,06,12,16,44,15.30
2014,06,12,16,45,15.30
2014,06,12,16,46,15.30
2014,06,12,16,47,15.30
2014,06,12,16,48,15.30
2014,06,12,16,49,15.30
2014,06,12,16,50,15.30
2014,06,12,16,51,15.30
2014,06,12,16,52,15.30
2014,06,12,16,53,15.30
2014,06,12,16,54,15.30
2014,06,12,16,55,15.30
2014,06,12,16,56,15.30
2014,06,12,16,57,15.30
2014,06,12,16,58,15.40
2014,06,12,16,59,15.40
2014,06,12,17,00,15.40
2014,06,12,17,01,15.40
2014,06,12,17,02,15.40
2014,06,12,17,03,15.40
2014,06,12,17,04,15.40
2014,06,12,17,05,15.40
2014,06,12,17,06,15.40
2014,06,12,17,07,15.40
2014,06,12,17,08,15.40
2014,06,12,17,09,15.40
2014,06,12,17,10,15.50
2014,06,12,17,11,15.50
2014,06,12,17,12,15.50
2014,06,12,17,13,15.50
2014,06,12,17,14,15.50
2014,06,12,17,15,15.50
2014,06,12,17,16,15.50
2014,06,12,17,17,15.50
2014,06,12,17,18,15.50
2014,06,12,17,19,15.50